Hourly Data Report for January 17, 2004

All times are specified in Local Standard Time (LST). Add 1 hour to adjust for Daylight Saving Time where and when it is observed.

SHERBROOKE A
QUEBEC

45°26'00.000" N
71°41'00.000" W
241.40 m
7028124
71610
YSC

Download Data

Hourly Data (January 2004)
Hourly Data Report for January 17, 2004
TIME Temp Definition
°C
Dew Point Temp Definition
°C
Rel Hum Definition
%
Wind Dir Definition
10's deg

Wind Spd Definition
km/h
Visibility Definition
km
Stn Press Definition
kPa
Hmdx Definition


Wind Chill Definition


Weather Definition


00:00 -15.6 -20.2 68 26 24 3.7 97.95   -26 Snow
01:00 -15.6 -20.0 69 28 26 3.4 97.98   -26 Snow
02:00 -15.7 -20.3 68 25 17 3.7 98.10   -24 Snow
03:00 -15.8 -20.5 67 26 20 4.0 98.20   -25  
04:00 -16.2 -20.6 69 27 30 4.0 98.26   -28  
05:00 -16.4 -21.1 67 27 22 2.9 98.33   -26 Snow
06:00 -16.5 -21.4 66 27 24 6.4 98.39   -27  
07:00 -16.7 -21.6 66 27 20 6.4 98.47   -26  
08:00 -17.3 -22.3 65 27 30 19.3 98.55   -29 Mostly Cloudy
09:00 -17.4 -22.9 62 27 15 24.1 98.65   -26 Mainly Clear
10:00 -16.7 -22.3 62 27 19 24.1 98.73   -26 Mainly Clear
11:00 -15.7 -21.9 59 26 11 24.1 98.69   -22 Mainly Clear
12:00 -14.7 -21.1 58 28 17 24.1 98.60   -23 Mainly Clear
13:00 -13.9 -20.8 56 27 17 24.1 98.50   -22 Mainly Clear
14:00 -13.3 -20.5 55 26 19 24.1 98.48   -22 Mainly Clear
15:00 -12.7 -20.2 53 27 15 24.1 98.50   -20 Clear
16:00 -13.9 -20.8 56 29 13 24.1 98.53   -21 Clear
17:00 -15.7 -21.6 60 27 9 24.1 98.51   -22 Mainly Clear
18:00 -19.0 -23.1 70   0 15.0 98.42      
19:00 -20.5 -24.8 68 18 6 15.0 98.40   -26  
20:00 -20.4 -24.7 68 10 6 15.0 98.36   -25  
21:00 -19.1 -23.6 68 9 6 15.0 98.35   -24  
22:00 -18.6 -23.1 68 10 6 15.0 98.28   -23  
23:00 -17.9 -22.7 66 8 7 15.0 98.20   -23  

Notes on Data Quality.

Legend

  • E = Estimated
  • M = Missing
  • NA = Not Available
Date modified: